Home   Weather   Küssnacht   Past weeks

Flag for Switzerland Past Weather in Küssnacht, Schwyz, Switzerland — Yesterday and Last 2 Weeks

Now
48 °F

Cool.


Feels Like: 47 °F
Forecast: 34 / 46 °F
Wind: 3 mph from Southwest

Location: Altdorf

Current Time: Nov 21, 2017 at 3:31:40 pm

Latest Report: Nov 21, 2017 at 2:00 pm


Visibility: N/A

Pressure: 30.14 "Hg

Humidity: 71%

Dew Point: 39 °F

Location of KüssnachtLocation

Past Weather in Küssnacht — Graph

°F

Küssnacht Temperature Yesterday

Maximum temperature yesterday: 43 °F (at 1:00 pm)
Minimum temperature yesterday: 34 °F (at 8:00 am)
Average temperature yesterday: 39 °F

High & Low Weather Summary for the Past Weeks

 TemperatureHumidityPressure
High53 °F (Nov 12, 2:00 pm)98% (Nov 19, 8:00 am)30.40 "Hg (Nov 19, 8:00 am)
Low26 °F (Nov 15, 5:00 am)58% (Nov 10, 1:00 pm)29.47 "Hg (Nov 12, 4:00 pm)
Average40 °F83%30.17 "Hg
* Reported Nov 6 12:00 pm — Nov 21 12:00 pm, Küssnacht. Weather by CustomWeather, © 2017

Note: Actual official high and low records may vary slightly from our data, if they occured in-between our weather recording intervals... More about our weather records

Advertising

Küssnacht Weather History for the Previous 24 Hours

Scroll right to see more
 ConditionsComfort  
Time TempWeatherWind HumidityBarometerVisibility
12:00 pm
Tue, Nov 21
46 °FCool.2 mph73%30.16 "HgN/A
11:00 am45 °FQuite cool.1 mph70%30.17 "HgN/A
10:00 am43 °FOvercast.1 mph75%30.19 "Hg12 mi
9:00 am40 °FQuite cool.2 mph83%30.21 "HgN/A
8:00 am39 °FChilly.3 mph84%30.20 "HgN/A
7:00 am38 °FOvercast.3 mph88%30.20 "Hg9 mi
6:00 am38 °FChilly.3 mph85%30.20 "HgN/A
5:00 am39 °FChilly.5 mph81%30.20 "HgN/A
4:00 am36 °FPassing clouds.3 mph90%30.21 "Hg9 mi
3:00 am38 °FChilly.3 mph84%30.19 "HgN/A
2:00 am39 °FChilly.1 mph83%30.17 "HgN/A
1:00 am39 °FOvercast.2 mph81%30.16 "Hg9 mi
12:00 am38 °FChilly.3 mph83%30.19 "HgN/A
11:00 pm
Mon, Nov 20
38 °FChilly.5 mph88%30.21 "HgN/A
10:00 pm39 °FOvercast.3 mph85%30.22 "Hg9 mi
9:00 pm40 °FChilly.2 mph82%30.21 "HgN/A
8:00 pm41 °FQuite cool.3 mph78%30.21 "HgN/A
7:00 pm41 °FOvercast.6 mph76%30.22 "Hg9 mi
6:00 pm40 °FQuite cool.3 mph81%30.23 "HgN/A
5:00 pm41 °FQuite cool.2 mph78%30.22 "HgN/A
4:00 pm43 °FOvercast.3 mph67%30.20 "Hg16 mi
3:00 pm43 °FQuite cool.1 mph65%30.21 "HgN/A
Weather by CustomWeather, © 2017

See weather overview